Hollywood, FL

5:14 PM EDT on March 24, 2017 (GMT -0400)
North Perry

Weather History for KHWO - March, 2014

Change the Weather History Date:

Saturday, March 15, 2014

  Actual Average (KFLL) Record (KFLL)
Temperature  
Mean Temperature 68 °F -  
Max Temperature 80 °F 79 °F 90 °F (2008)
Min Temperature 59 °F 61 °F 41 °F (1993)
Cooling Degree Days 4    
Growing Degree Days 18 (Base 50)    
Moisture  
Dew Point 56 °F    
Average Humidity 63    
Maximum Humidity 93    
Minimum Humidity 40    
Precipitation  
Precipitation 0.00 in - - ()
Sea Level Pressure  
Sea Level Pressure 30.12 in    
Wind  
Wind Speed 6 mph (ESE)    
Max Wind Speed 13 mph    
Max Gust Speed 20 mph    
Visibility 10 miles    
Events      
Averages and records for this station are not official NWS values.
T = Trace of Precipitation, MM = Missing Value Source: NWS Daily Summary

Daily Weather History Graph

Daily Weather History Graph

Search for Another Location

Airport or City:

Trip Planner

Search our weather history database for the weather conditions in past years. The results will help you decide how hot, cold, wet, or windy it might be!

Date:

Astronomy

Mar. 15, 2014 Rise Set
Actual Time 7:30 AM EDT 7:29 PM EDT
Civil Twilight 7:07 AM EDT 7:52 PM EDT
Nautical Twilight 6:40 AM EDT 8:19 PM EDT
Astronomical Twilight 6:13 AM EDT 8:46 PM EDT
Moon 6:48 PM EDT (3/15) 6:37 AM EDT (3/15)
Length of Visible Light 12h 45m
Length of Day
11h 59m
Waxing Gibbous, 99% of the Moon is Illuminated
Mar 15
Waxing Gibbous
Mar 16
Full
Mar 23
Last Quarter
Mar 30
New
Apr 7
First Quarter

Hourly Weather History & Observations

Time (EDT) Temp. Dew Point Humidity Pressure Visibility Wind Dir Wind Speed Gust Speed Precip Events Conditions
12:53 AM 68.0 °F 55.9 °F 65% 30.17 in 10.0 mi SE 4.6 mph - N/A   Mostly Cloudy
1:53 AM 68.0 °F 55.9 °F 65% 30.16 in 10.0 mi Calm Calm - N/A   Overcast
2:53 AM 64.9 °F 55.9 °F 73% 30.15 in 10.0 mi Calm Calm - N/A   Overcast
3:53 AM 62.1 °F 55.9 °F 80% 30.13 in 10.0 mi NNW 4.6 mph - N/A   Clear
4:53 AM 61.0 °F 55.9 °F 83% 30.12 in 10.0 mi NNW 3.5 mph - N/A   Clear
5:53 AM 61.0 °F 57.9 °F 90% 30.12 in 10.0 mi NNW 3.5 mph - N/A   Mostly Cloudy
6:53 AM 61.0 °F 57.9 °F 90% 30.13 in 10.0 mi Calm Calm - N/A   Partly Cloudy
7:53 AM 59.0 °F 57.0 °F 93% 30.13 in 10.0 mi Calm Calm - N/A   Clear
8:53 AM 66.9 °F 60.1 °F 79% 30.14 in 10.0 mi NNE 3.5 mph - N/A   Clear
9:53 AM 73.0 °F 57.0 °F 57% 30.15 in 10.0 mi SE 11.5 mph - N/A   Partly Cloudy
10:53 AM 75.9 °F 54.0 °F 46% 30.15 in 10.0 mi SSE 12.7 mph - N/A   Clear
11:53 AM 75.9 °F 53.1 °F 45% 30.17 in 10.0 mi East 10.4 mph - N/A   Mostly Cloudy
12:53 PM 78.1 °F 52.0 °F 40% 30.15 in 10.0 mi East 8.1 mph - N/A   Scattered Clouds
1:53 PM 78.1 °F 55.0 °F 45% 30.12 in 10.0 mi East 12.7 mph - N/A   Partly Cloudy
2:53 PM 77.0 °F 55.9 °F 48% 30.10 in 10.0 mi East 11.5 mph 19.6 mph N/A   Partly Cloudy
3:53 PM 77.0 °F 55.9 °F 48% 30.09 in 10.0 mi SE 12.7 mph 18.4 mph N/A   Partly Cloudy
3:59 PM 77.0 °F 55.0 °F 47% 30.08 in 10.0 mi SSE 12.7 mph - N/A   Partly Cloudy
4:53 PM 75.9 °F 55.9 °F 50% 30.08 in 10.0 mi ESE 8.1 mph 17.3 mph N/A   Partly Cloudy
5:53 PM 73.9 °F 55.9 °F 53% 30.08 in 10.0 mi ESE 11.5 mph - N/A   Partly Cloudy
6:53 PM 73.0 °F 57.9 °F 59% 30.08 in 10.0 mi ESE 9.2 mph - N/A   Clear
7:53 PM 71.1 °F 57.9 °F 63% 30.08 in 10.0 mi SE 9.2 mph - N/A   Clear
8:53 PM 71.1 °F 57.9 °F 63% 30.08 in 10.0 mi ESE 6.9 mph - N/A   Clear
9:53 PM 70.0 °F 57.9 °F 65% 30.09 in 10.0 mi ESE 6.9 mph - N/A   Clear
10:53 PM 70.0 °F 57.9 °F 65% 30.09 in 10.0 mi ESE 6.9 mph - N/A   Clear
11:53 PM 70.0 °F 59.0 °F 68% 30.07 in 10.0 mi ESE 6.9 mph - N/A   Clear